SCP
-0 -0 -0 -0 -0 -0 -0 -0 -0 -0 -0 -0 -0 -0 -0 -0 -0 -0 -0 -0 -0 -0 -0 -0 -0 -0 -0 0 0 -0 -0 0 -0 -0 0 -0 0 -0 -0 -0 -0 -0 -0 -0 0 0 0
0 0 -0 -0 -0 -0 -0 -0 -0 -0 -0 -0 -0 -0 -0 -0 -0 -0 -0 -0 -0 -0 -0 -0 -0 -0 -0 -0 0 0 -0 -0 -0 -0 -0 0 -0 -0 -0 -0 -0 -0 -0 -0 -0 -0 0
0 0 0 0 0 0 -0 -0 -0 -0 -0 -0 -0 -0 -0 -0 -0 -0 -0 -0 -0 -0 -0 -0 -0 -0 0 0 -0 0 -0 -0 -0 -0 -0 -0 -0 -0 -0 -0 -0 -0 -0 -0 -0 -0 -0
0 0 0 0 0 0 0 0 0 -0 -0 -0 -0 -0 -0 -0 -0 -0 -0 -0 -0 -0 0 0 0 0 -0 -0 -0 0 0 -0 -0 -0 -0 -0 -0 0 -0 -0 -0 -0 -0 -0 -0 -0 -0
0 0 0 0 0 0 0 0 0 0 0 0 0 -0 -0 -0 -0 -0 -0 0 0 0 0 0 0 0 0 -0 0 0 -0 -0 -0 -0 -0 -0 0 0 -0 -0 -0 -0 -0 -0 -0 -0 -0
0 0 0 0 0 0 0 0 0 0 0 0 0 -0 -0 -0 -0 -0 0 0 0 0 0 0 0 0 0 0 0 0 -0 -0 -0 -0 -0 0 0 -0 -0 -0 -0 -0 -0 -0 -0 -0 0
0 0 0 0 0 0 0 0 0 0 0 0 0 0 0 0 0 0 0 0 0 0 0 0 0 0 0 -0 -0 0 0 -0 -0 -0 -0 0 -0 -0 -0 -0 -0 -0 0 0 0 0 0
0 0 0 0 0 0 0 0 0 0 0 0 0 0 0 0 0 0 0 0 0 0 0 0 0 0 0 0 0 0 0 0 -0 -0 -0 0 -0 -0 -0 0 0 0 0 0 0 0 0
0 0 0 0 0 0 0 0 0 0 0 0 0 0 0 0 0 0 0 0 -0 0 0 0 0 0 0 0 0 0 0 -0 0 0 0 0 0 0 0 0 0 0 0 0 0 0 0
0 0 0 0 0 0 0 0 0 0 0 0 0 0 0 0 0 0 0 0 0 0 0 0 0 0 0 0 0 -0 -0 -0 0 -0 0 0 0 0 0 0 0 0 0 0 0 0 0
0 0 0 0 0 0 0 0 0 0 0 0 0 0 0 0 0 0 0 0 0 0 0 0 0 0 0 0 0 0 -0 -0 -0 0 0 0 0 0 0 0 0 0 0 0 0 0 0
0 0 0 0 0 0 0 0 0 0 0 0 0 0 0 0 0 0 0 0 0 0 0 0 0 0 0 0 0 0 0 0 -0 0 0 0 0 0 0 0 0 0 0 0 0 0 0
0 0 0 0 0 0 0 0 0 0 0 0 0 0 0 0 0 0 0 0 0 0 0 0 0 0 0 0 0 0 0 0 0 0 0 0 0 0 0 0 0 0 0 0 0 0 0
0 0 0 0 0 0 0 0 0 0 0 0 0 0 0 0 0 0 0 0 0 0 0 0 0 0 0 0 0 0 0 0 0 0 0 0 0 0 0 0 0 0 0 0 0 0 0
0 0 0 0 0 0 0 0 0 0 0 0 0 0 0 0 0 0 0 0 0 0 0 0 0 0 0 0 0 0 0 0 0 0 0 0 0 0 0 0 0 0 0 0 0 0 0
0 0 0 0 0 0 0 0 0 0 0 0 0 0 0 0 0 0 0 0 0 0 0 0 0 0 0 0 0 0 0 0 0 0 0 0 0 0 0 0 0 0 0 0 0 0 0
0 0 0 0 0 0 0 0 0 0 0 0 0 0 0 0 0 0 0 0 0 0 0 0 0 0 0 0 0 0 0 0 0 0 0 0 0 0 0 0 0 0 0 0 0 0 0
0 0 0 0 0 0 0 0 0 0 0 0 0 0 0 0 0 0 0 0 0 0 0 0 0 0 0 0 0 0 0 0 0 0 0 0 0 0 0 0 0 0 0 0 0 0 0
0 0 0 0 0 0 0 0 0 0 0 0 0 0 0 0 0 0 0 0 0 0 0 0 0 0 0 0 0 0 0 0 0 0 0 0 0 0 0 0 0 0 0 0 0 0 0
0 0 0 0 0 0 0 0 0 0 0 0 0 0 0 0 0 0 0 0 0 0 0 0 0 0 0 0 0 0 0 0 0 0 0 0 0 0 0 0 0 0 0 0 0 0 0
0 0 0 0 0 0 0 0 0 0 0 0 0 0 0 0 0 0 0 0 0 0 0 0 0 0 0 0 0 0 0 0 0 0 0 0 0 0 0 0 0 0 0 0 0 0 0
0 0 0 0 0 0 0 0 0 0 0 0 0 0 0 0 0 0 0 0 0 0 0 0 0 0 0 0 0 0 0 0 0 0 0 0 0 0 0 0 0 0 0 0 0 0 0
0 0 0 0 0 0 0 0 0 0 0 0 0 0 0 0 0 0 0 0 0 0 0 0 0 0 0 0 0 0 0 0 0 0 0 0 0 0 0 0 0 0 0 0 0 0 0
0 0 0 0 0 0 0 0 0 0 0 0 0 0 0 0 0 0 0 0 0 0 0 0 0 0 0 0 0 0 0 0 0 0 0 0 0 0 0 0 0 0 0 0 0 0 0
0 0 0 0 0 0 0 0 0 0 0 0 0 0 0 0 0 0 0 0 0 0 0 0 0 0 0 0 0 0 0 0 0 0 0 0 0 0 0 0 0 0 0 0 0 0 0
0 0 0 0 0 0 0 0 0 0 0 0 0 0 0 0 0 0 0 0 0 0 0 0 0 0 0 0 0 0 0 0 0 0 0 0 0 0 0 0 0 0 0 0 0 0 0
0 0 0 0 0 0 0 0 0 0 0 0 0 0 0 0 0 0 0 0 0 0 0 0 0 0 0 0 0 0 0 0 0 0 0 0 0 0 0 0 0 0 0 0 0 0 0
0 0 0 0 0 0 0 0 0 0 0 0 0 0 0 0 0 0 0 0 0 0 0 0 0 0 0 0 0 0 0 0 0 0 0 0 0 0 0 0 0 0 0 0 0 0 0
0 0 0 0 0 0 0 0 0 0 0 0 0 0 0 0 0 0 0 0 0 0 0 0 0 0 0 0 0 0 0 0 0 0 0 0 0 0 0 0 0 0 0 0 0 0 0
Wind_Speed_500mb
14 17 22 16 13 13 12 12 12 13 16 18 21 23 23 24 25 25 27 21 24 33 38 51 43 21 35 52 33 35 37 38 41 53 67 44 52 19 11 8 10 9 10 12 15 35 31
14 15 14 15 12 8 8 8 8 9 11 13 17 18 18 21 22 21 20 19 20 21 18 36 37 55 28 38 37 31 30 30 41 50 56 66 27 30 26 8 7 3 6 15 28 39 23
10 12 11 8 10 5 1 2 3 4 6 9 10 12 17 19 17 15 19 25 20 26 23 21 23 20 67 39 32 25 22 28 32 39 58 48 38 13 11 5 9 5 5 9 15 26 13
4 4 6 3 3 2 2 4 3 0 3 6 8 10 11 12 11 13 15 15 19 21 21 22 12 19 23 36 27 21 16 16 24 25 34 30 49 35 18 7 14 11 10 11 9 28 16
5 4 4 3 2 2 3 6 5 4 3 3 2 4 8 10 12 14 14 11 12 28 8 9 13 9 11 26 39 32 31 21 13 30 32 20 33 34 19 7 8 14 3 4 17 14 11
6 0 1 4 7 2 5 5 6 7 8 7 8 6 8 12 15 17 16 10 6 22 8 5 14 11 14 20 37 39 17 27 17 1 7 33 22 8 10 10 6 7 10 10 9 11 14
8 8 5 3 7 5 7 7 6 8 10 11 8 8 6 10 12 16 17 9 8 4 32 23 17 10 10 17 20 39 20 10 14 23 11 17 19 11 9 4 8 6 6 8 8 6 25
12 11 12 14 13 10 11 10 10 9 11 12 11 8 8 9 11 16 16 7 11 7 10 13 13 14 15 16 12 41 25 8 20 11 10 11 8 10 12 3 3 2 3 6 18 3 15
17 16 16 14 14 15 15 15 11 11 12 15 13 10 7 7 7 10 18 17 10 6 4 6 10 11 14 13 11 28 30 13 15 12 12 13 5 19 4 4 11 3 6 9 9 24 10
22 23 21 19 19 16 14 11 11 14 13 14 17 13 10 8 2 9 13 12 7 2 10 10 8 9 10 6 4 23 21 12 10 6 6 3 6 8 5 5 8 7 6 11 17 14 6
20 22 25 23 22 20 15 13 11 12 13 14 16 18 12 5 3 6 8 9 5 3 8 2 3 5 6 7 9 17 18 11 5 2 8 4 6 7 6 6 5 12 16 13 4 5 5
27 24 21 23 23 22 21 19 16 13 15 12 10 13 16 7 4 4 7 8 3 12 10 5 5 7 2 12 9 17 10 13 5 4 7 2 5 3 5 7 4 24 6 2 5 5 5
27 28 26 25 25 25 23 22 23 21 18 16 13 13 12 9 4 4 7 2 10 9 8 10 2 8 4 10 8 16 11 13 8 11 15 12 3 6 6 7 4 13 10 8 14 11 8
32 32 31 29 29 28 26 23 21 22 21 19 14 12 9 8 4 1 4 8 7 4 11 3 5 6 5 13 7 12 4 5 6 7 8 8 13 4 10 3 3 9 4 9 8 6 11
39 40 38 37 36 36 33 28 25 21 22 22 19 15 11 8 8 5 4 7 15 14 11 15 5 10 10 7 2 5 5 6 3 3 10 6 11 4 3 5 4 4 8 4 6 4 4
48 47 47 44 43 42 42 38 31 26 22 24 20 13 17 13 12 9 9 11 6 4 12 5 11 6 8 7 4 6 2 6 5 2 1 8 8 1 2 2 8 2 10 5 6 4 10
68 57 58 56 49 47 48 46 38 32 25 27 16 10 11 20 17 7 7 15 9 13 9 8 12 8 7 8 8 3 6 7 9 7 9 9 6 7 5 5 11 2 1 9 6 5 7
74 74 71 68 61 59 52 53 48 41 32 35 14 6 13 27 10 5 6 12 8 11 13 4 5 4 13 13 8 4 10 13 23 21 11 10 8 8 14 3 4 4 9 10 8 9 8
82 81 81 75 77 75 62 60 58 54 52 49 13 11 18 35 7 6 4 6 8 9 11 7 9 6 4 13 3 10 9 7 30 21 12 15 3 7 12 9 9 7 9 8 7 4 16
80 82 86 81 88 75 77 72 71 65 60 55 16 4 11 30 14 10 9 8 8 18 8 11 9 8 6 8 4 8 7 9 29 22 14 22 6 12 12 11 7 8 7 18 12 8 8
98 97 88 87 88 85 88 88 82 79 74 63 28 17 19 9 14 17 15 14 10 11 13 20 2 13 15 8 8 12 10 7 16 22 17 10 11 11 21 27 14 42 29 22 37 44 17
101 92 100 98 100 91 96 101 101 95 85 80 32 17 18 11 11 24 16 17 24 10 20 12 12 24 16 16 20 20 15 10 12 11 13 10 6 5 10 23 23 39 43 36 50 47 47
88 93 103 105 101 100 98 102 108 108 112 62 69 46 20 20 18 13 14 16 29 30 31 19 40 14 23 41 35 1 17 10 19 19 17 13 6 5 12 5 14 24 20 24 13 14 18
84 82 98 110 107 104 103 103 115 124 132 105 89 64 26 10 18 18 16 39 28 44 14 17 25 18 14 17 26 14 13 3 11 17 19 12 10 4 8 9 3 11 3 10 15 14 34
94 92 92 93 100 118 95 101 129 140 132 139 82 78 40 10 31 24 25 17 17 27 19 19 29 20 26 23 7 8 8 10 4 3 5 8 8 3 3 4 20 18 6 12 15 16 28
64 86 85 78 84 98 113 108 132 141 152 141 115 101 56 16 26 41 29 45 12 12 8 12 25 31 34 6 6 12 12 8 8 8 7 10 6 7 4 5 13 10 7 16 9 11 13
66 62 73 97 69 74 94 112 113 128 158 153 133 119 74 35 40 63 20 32 37 25 11 15 25 24 25 5 5 7 10 2 9 19 12 10 7 26 7 9 20 27 15 8 10 12 21
59 75 73 66 85 99 78 80 136 127 156 165 133 132 129 66 60 76 78 50 42 56 15 36 18 10 5 8 9 8 9 14 3 10 17 19 20 12 9 8 22 31 19 17 12 6 17
56 54 63 75 68 74 86 75 53 141 121 164 119 111 126 76 28 76 77 87 76 65 58 63 23 27 35 8 4 7 5 1 6 8 4 7 17 15 27 20 9 58 29 45 13 22 42
Wind_Direction_500mb
44 72 97 97 99 107 98 85 69 62 65 60 60 52 48 53 50 47 51 53 42 44 53 55 50 63 66 66 36 18 18 24 39 42 47 54 58 69 83 84 72 70 339 358 353 5 8
61 62 67 83 93 84 79 78 73 58 59 53 52 50 48 48 47 43 36 33 16 6 26 40 44 49 76 66 24 13 22 34 46 47 51 51 54 81 84 87 87 228 235 339 19 12 37
58 20 43 57 92 101 102 77 66 68 57 53 52 43 39 38 38 43 39 27 25 46 30 20 35 43 54 53 34 25 23 37 47 52 51 42 41 100 93 57 24 28 35 23 4 2 36
358 330 340 53 53 50 257 203 195 195 47 36 33 28 28 29 23 10 357 2 34 1 314 12 24 51 72 45 34 51 55 45 49 46 43 43 44 58 46 72 14 31 51 10 5 358 15
317 319 295 271 166 300 287 304 316 328 301 308 330 7 10 6 5 357 351 339 310 347 14 29 32 89 69 30 33 27 30 41 70 57 44 24 40 38 23 43 31 6 313 320 316 22 3
267 287 20 12 275 238 278 284 292 294 270 276 296 323 352 357 356 358 357 351 346 17 32 79 43 83 46 7 20 20 27 39 51 10 44 42 56 65 7 43 45 317 350 302 248 324 345
251 235 246 272 283 272 270 259 266 274 280 282 282 303 337 360 3 4 5 3 14 10 53 68 50 70 32 12 25 18 24 28 52 52 47 33 55 19 306 21 169 183 198 272 260 298 340
258 256 258 263 260 278 288 281 263 258 259 263 275 288 319 355 10 19 20 59 71 132 68 60 48 43 32 15 10 15 19 42 38 51 352 43 44 284 269 288 182 168 274 296 295 269 344
262 262 271 267 262 267 271 271 272 261 270 278 279 290 303 332 14 25 42 61 68 98 94 24 29 22 15 14 37 1 16 30 44 52 22 91 281 314 277 336 28 54 69 340 287 324 6
259 263 263 273 267 259 257 264 278 279 272 281 293 302 307 321 308 23 46 47 59 74 75 302 5 13 354 355 54 13 20 29 44 91 69 90 320 312 328 48 22 4 159 305 304 9 314
253 258 252 260 263 267 272 269 271 269 270 285 304 307 301 314 330 36 32 32 64 81 24 209 314 317 360 69 336 359 21 36 76 79 95 254 339 328 347 352 357 261 305 289 256 115 36
261 262 259 257 258 261 272 278 269 257 246 256 292 316 305 305 316 30 31 16 72 43 258 308 284 332 13 25 25 352 18 38 63 93 37 306 321 275 300 325 292 275 330 95 86 125 36
259 262 262 263 260 253 254 264 261 257 248 248 280 301 304 282 290 359 3 354 33 127 355 288 276 23 69 6 18 24 28 14 25 27 15 337 287 311 315 311 297 354 9 352 2 8 249
265 266 262 265 263 265 258 265 259 255 240 240 260 283 286 266 253 300 320 49 106 212 221 335 32 46 72 357 31 354 64 68 23 59 83 62 330 29 353 20 284 356 51 127 217 284 287
267 266 264 260 257 259 257 257 255 246 231 228 240 268 280 249 216 213 332 59 205 197 163 150 74 59 321 354 64 29 43 176 202 170 121 79 285 321 360 324 10 326 48 194 119 99 321
255 264 264 261 258 251 249 246 244 237 234 223 238 257 259 231 204 172 81 248 211 209 136 166 159 146 191 264 43 57 14 220 179 109 166 217 331 168 294 306 23 24 167 63 26 11 299
259 257 257 259 255 254 244 241 236 228 222 212 219 260 215 196 176 166 167 223 250 213 200 161 175 143 182 183 155 209 225 278 210 147 116 136 104 270 48 187 174 142 342 45 115 150 211
258 257 257 258 253 249 244 236 230 220 203 198 196 259 190 170 136 132 175 200 177 186 199 227 128 110 170 161 146 204 219 218 188 164 160 198 143 260 236 222 318 290 203 165 130 247 234
257 258 254 253 253 252 244 235 224 214 207 189 200 203 189 179 174 218 241 255 233 167 201 164 177 176 174 169 139 189 201 208 182 171 166 182 270 336 339 0 357 215 197 199 101 120 206
261 257 256 249 256 257 252 236 223 213 210 201 184 157 188 196 233 150 142 225 218 200 188 171 154 129 127 177 222 190 233 212 196 197 185 166 170 197 207 220 132 264 204 201 161 182 199
256 260 255 257 257 252 249 249 223 213 206 198 197 227 191 185 232 193 182 163 161 187 210 189 243 206 167 158 152 227 195 191 190 204 170 154 212 187 256 277 247 267 254 205 215 227 223
252 253 252 252 252 253 250 246 231 210 204 197 180 179 187 175 159 164 189 215 183 175 155 228 218 190 182 173 187 193 161 192 201 169 154 173 257 129 263 260 277 275 263 240 239 242 253
259 262 251 253 250 248 250 251 236 211 199 199 203 207 192 172 161 143 205 200 203 156 210 200 208 136 197 230 204 69 172 167 177 159 178 153 158 42 266 5 312 284 252 206 190 216 217
245 253 251 255 248 249 249 249 241 222 210 205 203 197 186 224 189 201 185 194 194 199 180 190 188 174 205 200 170 198 232 323 214 216 173 141 118 101 277 357 12 253 151 172 203 237 207
249 249 249 254 253 252 247 252 242 224 222 207 205 194 189 209 199 199 196 177 185 199 196 179 188 200 171 139 78 51 340 10 316 341 209 150 120 1 241 203 298 290 165 151 177 277 211
252 250 246 246 244 244 248 257 243 230 220 214 207 205 205 159 216 203 187 190 168 164 134 177 182 168 168 111 110 178 212 190 266 358 16 161 92 145 79 178 241 227 180 166 158 291 191
252 248 252 249 236 249 245 250 245 234 222 215 209 211 197 215 228 186 181 190 189 152 141 146 156 169 179 114 116 161 237 236 202 170 164 145 174 215 204 256 274 250 211 170 85 253 192
262 253 249 247 249 249 246 238 235 240 225 214 209 209 208 215 226 216 212 183 169 181 156 160 118 189 119 175 161 204 186 213 141 157 170 166 162 190 153 201 281 166 131 183 214 181 189
257 260 252 248 249 250 243 241 239 235 228 217 208 212 215 216 229 228 227 223 224 223 185 172 187 161 175 156 204 111 179 91 163 232 155 223 193 181 191 209 229 191 219 220 239 266 273
Wind_Speed_850mb
14 17 22 16 13 13 12 12 12 13 16 18 21 23 23 24 25 25 27 21 24 33 38 51 43 21 35 52 33 35 37 38 41 53 67 44 52 19 11 8 10 9 10 12 15 35 31
14 15 14 15 12 8 8 8 8 9 11 13 17 18 18 21 22 21 20 19 20 21 18 36 37 55 28 38 37 31 30 30 41 50 56 66 27 30 26 8 7 3 6 15 28 39 23
10 12 11 8 10 5 1 2 3 4 6 9 10 12 17 19 17 15 19 25 20 26 23 21 23 20 67 39 32 25 22 28 32 39 58 48 38 13 11 5 9 5 5 9 15 26 13
4 4 6 3 3 2 2 4 3 0 3 6 8 10 11 12 11 13 15 15 19 21 21 22 12 19 23 36 27 21 16 16 24 25 34 30 49 35 18 7 14 11 10 11 9 28 16
5 4 4 3 2 2 3 6 5 4 3 3 2 4 8 10 12 14 14 11 12 28 8 9 13 9 11 26 39 32 31 21 13 30 32 20 33 34 19 7 8 14 3 4 17 14 11
6 0 1 4 7 2 5 5 6 7 8 7 8 6 8 12 15 17 16 10 6 22 8 5 14 11 14 20 37 39 17 27 17 1 7 33 22 8 10 10 6 7 10 10 9 11 14
8 8 5 3 7 5 7 7 6 8 10 11 8 8 6 10 12 16 17 9 8 4 32 23 17 10 10 17 20 39 20 10 14 23 11 17 19 11 9 4 8 6 6 8 8 6 25
12 11 12 14 13 10 11 10 10 9 11 12 11 8 8 9 11 16 16 7 11 7 10 13 13 14 15 16 12 41 25 8 20 11 10 11 8 10 12 3 3 2 3 6 18 3 15
17 16 16 14 14 15 15 15 11 11 12 15 13 10 7 7 7 10 18 17 10 6 4 6 10 11 14 13 11 28 30 13 15 12 12 13 5 19 4 4 11 3 6 9 9 24 10
22 23 21 19 19 16 14 11 11 14 13 14 17 13 10 8 2 9 13 12 7 2 10 10 8 9 10 6 4 23 21 12 10 6 6 3 6 8 5 5 8 7 6 11 17 14 6
20 22 25 23 22 20 15 13 11 12 13 14 16 18 12 5 3 6 8 9 5 3 8 2 3 5 6 7 9 17 18 11 5 2 8 4 6 7 6 6 5 12 16 13 4 5 5
27 24 21 23 23 22 21 19 16 13 15 12 10 13 16 7 4 4 7 8 3 12 10 5 5 7 2 12 9 17 10 13 5 4 7 2 5 3 5 7 4 24 6 2 5 5 5
27 28 26 25 25 25 23 22 23 21 18 16 13 13 12 9 4 4 7 2 10 9 8 10 2 8 4 10 8 16 11 13 8 11 15 12 3 6 6 7 4 13 10 8 14 11 8
32 32 31 29 29 28 26 23 21 22 21 19 14 12 9 8 4 1 4 8 7 4 11 3 5 6 5 13 7 12 4 5 6 7 8 8 13 4 10 3 3 9 4 9 8 6 11
39 40 38 37 36 36 33 28 25 21 22 22 19 15 11 8 8 5 4 7 15 14 11 15 5 10 10 7 2 5 5 6 3 3 10 6 11 4 3 5 4 4 8 4 6 4 4
48 47 47 44 43 42 42 38 31 26 22 24 20 13 17 13 12 9 9 11 6 4 12 5 11 6 8 7 4 6 2 6 5 2 1 8 8 1 2 2 8 2 10 5 6 4 10
68 57 58 56 49 47 48 46 38 32 25 27 16 10 11 20 17 7 7 15 9 13 9 8 12 8 7 8 8 3 6 7 9 7 9 9 6 7 5 5 11 2 1 9 6 5 7
74 74 71 68 61 59 52 53 48 41 32 35 14 6 13 27 10 5 6 12 8 11 13 4 5 4 13 13 8 4 10 13 23 21 11 10 8 8 14 3 4 4 9 10 8 9 8
82 81 81 75 77 75 62 60 58 54 52 49 13 11 18 35 7 6 4 6 8 9 11 7 9 6 4 13 3 10 9 7 30 21 12 15 3 7 12 9 9 7 9 8 7 4 16
80 82 86 81 88 75 77 72 71 65 60 55 16 4 11 30 14 10 9 8 8 18 8 11 9 8 6 8 4 8 7 9 29 22 14 22 6 12 12 11 7 8 7 18 12 8 8
98 97 88 87 88 85 88 88 82 79 74 63 28 17 19 9 14 17 15 14 10 11 13 20 2 13 15 8 8 12 10 7 16 22 17 10 11 11 21 27 14 42 29 22 37 44 17
101 92 100 98 100 91 96 101 101 95 85 80 32 17 18 11 11 24 16 17 24 10 20 12 12 24 16 16 20 20 15 10 12 11 13 10 6 5 10 23 23 39 43 36 50 47 47
88 93 103 105 101 100 98 102 108 108 112 62 69 46 20 20 18 13 14 16 29 30 31 19 40 14 23 41 35 1 17 10 19 19 17 13 6 5 12 5 14 24 20 24 13 14 18
84 82 98 110 107 104 103 103 115 124 132 105 89 64 26 10 18 18 16 39 28 44 14 17 25 18 14 17 26 14 13 3 11 17 19 12 10 4 8 9 3 11 3 10 15 14 34
94 92 92 93 100 118 95 101 129 140 132 139 82 78 40 10 31 24 25 17 17 27 19 19 29 20 26 23 7 8 8 10 4 3 5 8 8 3 3 4 20 18 6 12 15 16 28
64 86 85 78 84 98 113 108 132 141 152 141 115 101 56 16 26 41 29 45 12 12 8 12 25 31 34 6 6 12 12 8 8 8 7 10 6 7 4 5 13 10 7 16 9 11 13
66 62 73 97 69 74 94 112 113 128 158 153 133 119 74 35 40 63 20 32 37 25 11 15 25 24 25 5 5 7 10 2 9 19 12 10 7 26 7 9 20 27 15 8 10 12 21
59 75 73 66 85 99 78 80 136 127 156 165 133 132 129 66 60 76 78 50 42 56 15 36 18 10 5 8 9 8 9 14 3 10 17 19 20 12 9 8 22 31 19 17 12 6 17
56 54 63 75 68 74 86 75 53 141 121 164 119 111 126 76 28 76 77 87 76 65 58 63 23 27 35 8 4 7 5 1 6 8 4 7 17 15 27 20 9 58 29 45 13 22 42
Wind_Direction_850mb
44 72 97 97 99 107 98 85 69 62 65 60 60 52 48 53 50 47 51 53 42 44 53 55 50 63 66 66 36 18 18 24 39 42 47 54 58 69 83 84 72 70 339 358 353 5 8
61 62 67 83 93 84 79 78 73 58 59 53 52 50 48 48 47 43 36 33 16 6 26 40 44 49 76 66 24 13 22 34 46 47 51 51 54 81 84 87 87 228 235 339 19 12 37
58 20 43 57 92 101 102 77 66 68 57 53 52 43 39 38 38 43 39 27 25 46 30 20 35 43 54 53 34 25 23 37 47 52 51 42 41 100 93 57 24 28 35 23 4 2 36
358 330 340 53 53 50 257 203 195 195 47 36 33 28 28 29 23 10 357 2 34 1 314 12 24 51 72 45 34 51 55 45 49 46 43 43 44 58 46 72 14 31 51 10 5 358 15
317 319 295 271 166 300 287 304 316 328 301 308 330 7 10 6 5 357 351 339 310 347 14 29 32 89 69 30 33 27 30 41 70 57 44 24 40 38 23 43 31 6 313 320 316 22 3
267 287 20 12 275 238 278 284 292 294 270 276 296 323 352 357 356 358 357 351 346 17 32 79 43 83 46 7 20 20 27 39 51 10 44 42 56 65 7 43 45 317 350 302 248 324 345
251 235 246 272 283 272 270 259 266 274 280 282 282 303 337 360 3 4 5 3 14 10 53 68 50 70 32 12 25 18 24 28 52 52 47 33 55 19 306 21 169 183 198 272 260 298 340
258 256 258 263 260 278 288 281 263 258 259 263 275 288 319 355 10 19 20 59 71 132 68 60 48 43 32 15 10 15 19 42 38 51 352 43 44 284 269 288 182 168 274 296 295 269 344
262 262 271 267 262 267 271 271 272 261 270 278 279 290 303 332 14 25 42 61 68 98 94 24 29 22 15 14 37 1 16 30 44 52 22 91 281 314 277 336 28 54 69 340 287 324 6
259 263 263 273 267 259 257 264 278 279 272 281 293 302 307 321 308 23 46 47 59 74 75 302 5 13 354 355 54 13 20 29 44 91 69 90 320 312 328 48 22 4 159 305 304 9 314
253 258 252 260 263 267 272 269 271 269 270 285 304 307 301 314 330 36 32 32 64 81 24 209 314 317 360 69 336 359 21 36 76 79 95 254 339 328 347 352 357 261 305 289 256 115 36
261 262 259 257 258 261 272 278 269 257 246 256 292 316 305 305 316 30 31 16 72 43 258 308 284 332 13 25 25 352 18 38 63 93 37 306 321 275 300 325 292 275 330 95 86 125 36
259 262 262 263 260 253 254 264 261 257 248 248 280 301 304 282 290 359 3 354 33 127 355 288 276 23 69 6 18 24 28 14 25 27 15 337 287 311 315 311 297 354 9 352 2 8 249
265 266 262 265 263 265 258 265 259 255 240 240 260 283 286 266 253 300 320 49 106 212 221 335 32 46 72 357 31 354 64 68 23 59 83 62 330 29 353 20 284 356 51 127 217 284 287
267 266 264 260 257 259 257 257 255 246 231 228 240 268 280 249 216 213 332 59 205 197 163 150 74 59 321 354 64 29 43 176 202 170 121 79 285 321 360 324 10 326 48 194 119 99 321
255 264 264 261 258 251 249 246 244 237 234 223 238 257 259 231 204 172 81 248 211 209 136 166 159 146 191 264 43 57 14 220 179 109 166 217 331 168 294 306 23 24 167 63 26 11 299
259 257 257 259 255 254 244 241 236 228 222 212 219 260 215 196 176 166 167 223 250 213 200 161 175 143 182 183 155 209 225 278 210 147 116 136 104 270 48 187 174 142 342 45 115 150 211
258 257 257 258 253 249 244 236 230 220 203 198 196 259 190 170 136 132 175 200 177 186 199 227 128 110 170 161 146 204 219 218 188 164 160 198 143 260 236 222 318 290 203 165 130 247 234
257 258 254 253 253 252 244 235 224 214 207 189 200 203 189 179 174 218 241 255 233 167 201 164 177 176 174 169 139 189 201 208 182 171 166 182 270 336 339 0 357 215 197 199 101 120 206
261 257 256 249 256 257 252 236 223 213 210 201 184 157 188 196 233 150 142 225 218 200 188 171 154 129 127 177 222 190 233 212 196 197 185 166 170 197 207 220 132 264 204 201 161 182 199
256 260 255 257 257 252 249 249 223 213 206 198 197 227 191 185 232 193 182 163 161 187 210 189 243 206 167 158 152 227 195 191 190 204 170 154 212 187 256 277 247 267 254 205 215 227 223
252 253 252 252 252 253 250 246 231 210 204 197 180 179 187 175 159 164 189 215 183 175 155 228 218 190 182 173 187 193 161 192 201 169 154 173 257 129 263 260 277 275 263 240 239 242 253
259 262 251 253 250 248 250 251 236 211 199 199 203 207 192 172 161 143 205 200 203 156 210 200 208 136 197 230 204 69 172 167 177 159 178 153 158 42 266 5 312 284 252 206 190 216 217
245 253 251 255 248 249 249 249 241 222 210 205 203 197 186 224 189 201 185 194 194 199 180 190 188 174 205 200 170 198 232 323 214 216 173 141 118 101 277 357 12 253 151 172 203 237 207
249 249 249 254 253 252 247 252 242 224 222 207 205 194 189 209 199 199 196 177 185 199 196 179 188 200 171 139 78 51 340 10 316 341 209 150 120 1 241 203 298 290 165 151 177 277 211
252 250 246 246 244 244 248 257 243 230 220 214 207 205 205 159 216 203 187 190 168 164 134 177 182 168 168 111 110 178 212 190 266 358 16 161 92 145 79 178 241 227 180 166 158 291 191
252 248 252 249 236 249 245 250 245 234 222 215 209 211 197 215 228 186 181 190 189 152 141 146 156 169 179 114 116 161 237 236 202 170 164 145 174 215 204 256 274 250 211 170 85 253 192
262 253 249 247 249 249 246 238 235 240 225 214 209 209 208 215 226 216 212 183 169 181 156 160 118 189 119 175 161 204 186 213 141 157 170 166 162 190 153 201 281 166 131 183 214 181 189
257 260 252 248 249 250 243 241 239 235 228 217 208 212 215 216 229 228 227 223 224 223 185 172 187 161 175 156 204 111 179 91 163 232 155 223 193 181 191 209 229 191 219 220 239 266 273